When you browse on this site, cookies collect data to enhance your experience and personalize the content and advertising you see.
Visit our Privacy Policy to learn more. By continuing to use the site, you agree to this use of cookies and data.
  • In Hungary
  • List of Countries
  • For 7 days
  • Water Temperature
  • Satellite Maps
  • Weather Map
  • News
  • Weather Widgets
  • user-avatar
    Login

    Hourly Weather Valevo

    Today, 15 December, Saturday

    Time Temperature Precipitation Wind Pressure Humidity
    00:00 0°C° 0.6 mm 1 mps 736 mmHg 97%
    01:00 0°C° 0 mm 1 mps 736 mmHg 97%
    02:00 0°C° 0.5 mm 1 mps 736 mmHg 97%
    03:00 0°C° 0.5 mm 1 mps 736 mmHg 97%
    04:00 -2°C° 0.5 mm 2 mps 736 mmHg 97%
    05:00 -2°C° 0.5 mm 2 mps 736 mmHg 97%
    06:00 -2°C° 0.5 mm 2 mps 736 mmHg 97%
    07:00 -3°C° 0 mm 2 mps 736 mmHg 97%
    08:00 -3°C° 0.6 mm 2 mps 736 mmHg 96%
    09:00 -3°C° 0.6 mm 2 mps 737 mmHg 96%
    10:00 -3°C° 0.6 mm 2 mps 737 mmHg 96%
    11:00 -3°C° 1.1 mm 2 mps 737 mmHg 96%
    12:00 -2°C° 1.1 mm 2 mps 737 mmHg 96%
    13:00 -3°C° 0 mm 2 mps 736 mmHg 97%
    14:00 -3°C° 0.9 mm 2 mps 736 mmHg 97%
    15:00 -3°C° 0.9 mm 2 mps 736 mmHg 97%
    16:00 -3°C° 0.9 mm 2 mps 737 mmHg 97%
    17:00 -3°C° 0.7 mm 2 mps 737 mmHg 97%
    18:00 -3°C° 0.7 mm 2 mps 737 mmHg 97%
    19:00 -3°C° 0.7 mm 2 mps 737 mmHg 97%
    20:00 -3°C° 0.3 mm 2 mps 737 mmHg 96%
    21:00 -3°C° 0.3 mm 2 mps 738 mmHg 96%
    22:00 -4°C° 0.3 mm 2 mps 738 mmHg 96%
    23:00 -4°C° 0.3 mm 2 mps 738 mmHg 96%

    Tomorrow, 16 December, Sunday

    Time Temperature Precipitation Wind Pressure Humidity
    00:00 -4°C° 0.3 mm 2 mps 738 mmHg 96%
    01:00 -4°C° 0.3 mm 2 mps 738 mmHg 96%
    02:00 -4°C° 0.2 mm 2 mps 738 mmHg 96%
    03:00 -4°C° 0.2 mm 2 mps 738 mmHg 96%
    04:00 -4°C° 0.2 mm 2 mps 738 mmHg 95%
    05:00 -4°C° 0.1 mm 2 mps 738 mmHg 95%
    06:00 -5°C° 0.1 mm 2 mps 739 mmHg 95%
    07:00 -6°C° 0.1 mm 2 mps 739 mmHg 95%
    08:00 -5°C° 0 mm 2 mps 740 mmHg 93%
    09:00 -2°C° 0 mm 1 mps 740 mmHg 92%
    10:00 -1°C° 0 mm 1 mps 741 mmHg 91%
    11:00 -1°C° 0 mm 1 mps 740 mmHg 89%
    12:00 0°C° 0 mm 1 mps 740 mmHg 88%
    13:00 0°C° 0 mm 1 mps 740 mmHg 86%
    14:00 -1°C° 0 mm 1 mps 740 mmHg 88%
    15:00 -4°C° 0 mm 0 mps 740 mmHg 90%
    16:00 -5°C° 0 mm 0 mps 740 mmHg 92%
    17:00 -6°C° 0 mm 0 mps 740 mmHg 91%
    18:00 -6°C° 0 mm 1 mps 740 mmHg 91%
    19:00 -6°C° 0 mm 1 mps 740 mmHg 90%
    20:00 -6°C° 0 mm 1 mps 740 mmHg 90%
    21:00 -6°C° 0 mm 1 mps 740 mmHg 89%
    22:00 -6°C° 0 mm 1 mps 740 mmHg 88%
    23:00 -6°C° 0 mm 1 mps 740 mmHg 86%

    Day after tomorrow, 17 December, Monday

    Time Temperature Precipitation Wind Pressure Humidity
    00:00 -6°C° 0 mm 1 mps 740 mmHg 85%
    01:00 -6°C° 0 mm 1 mps 740 mmHg 84%
    02:00 -6°C° 0 mm 1 mps 739 mmHg 84%
    03:00 -6°C° 0 mm 1 mps 739 mmHg 83%
    04:00 -6°C° 0 mm 1 mps 739 mmHg 82%
    05:00 -6°C° 0 mm 1 mps 739 mmHg 82%
    06:00 -6°C° 0 mm 1 mps 739 mmHg 82%
    07:00 -4°C° 0 mm 1 mps 739 mmHg 82%
    08:00 -3°C° 0 mm 1 mps 739 mmHg 83%
    09:00 -2°C° 0 mm 1 mps 739 mmHg 85%
    10:00 -1°C° 0 mm 1 mps 739 mmHg 86%
    11:00 -1°C° 0 mm 1 mps 739 mmHg 87%
    12:00 -1°C° 0 mm 1 mps 739 mmHg 88%
    13:00 -1°C° 0 mm 1 mps 739 mmHg 90%
    14:00 -2°C° 0 mm 1 mps 740 mmHg 91%
    15:00 -2°C° 0 mm 1 mps 740 mmHg 93%
    16:00 -2°C° 0 mm 1 mps 740 mmHg 95%
    17:00 -3°C° 0 mm 1 mps 741 mmHg 96%
    18:00 -3°C° 0 mm 1 mps 741 mmHg 96%
    19:00 -4°C° 0 mm 1 mps 742 mmHg 96%
    20:00 -4°C° 0 mm 1 mps 742 mmHg 96%
    21:00 -4°C° 0 mm 1 mps 742 mmHg 96%
    22:00 -6°C° 0 mm 2 mps 742 mmHg 96%
    23:00 -6°C° 0.1 mm 2 mps 743 mmHg 96%

    18 December, Tuesday

    Time Temperature Precipitation Wind Pressure Humidity
    00:00 -6°C° 0.1 mm 2 mps 743 mmHg 96%
    01:00 -5°C° 0.1 mm 2 mps 743 mmHg 96%
    02:00 -6°C° 0.1 mm 2 mps 743 mmHg 96%
    03:00 -6°C° 0.1 mm 2 mps 743 mmHg 96%
    04:00 -6°C° 0.1 mm 2 mps 743 mmHg 96%
    05:00 -6°C° 0.1 mm 2 mps 744 mmHg 95%
    06:00 -6°C° 0.1 mm 2 mps 744 mmHg 95%
    07:00 -6°C° 0.1 mm 2 mps 745 mmHg 95%
    08:00 -5°C° 0.1 mm 2 mps 745 mmHg 94%
    09:00 -5°C° 0.1 mm 2 mps 745 mmHg 92%
    10:00 -4°C° 0.1 mm 2 mps 746 mmHg 91%
    11:00 -3°C° 0.1 mm 2 mps 745 mmHg 91%
    12:00 -3°C° 0.1 mm 2 mps 745 mmHg 91%
    13:00 -2°C° 0.1 mm 2 mps 745 mmHg 91%
    14:00 -3°C° 0 mm 2 mps 745 mmHg 91%
    15:00 -2°C° 0 mm 1 mps 745 mmHg 92%
    16:00 -2°C° 0 mm 1 mps 745 mmHg 93%
    17:00 -3°C° 0 mm 1 mps 745 mmHg 92%
    18:00 -3°C° 0 mm 1 mps 746 mmHg 91%
    19:00 -3°C° 0 mm 1 mps 746 mmHg 91%
    20:00 -4°C° 0 mm 1 mps 746 mmHg 90%
    21:00 -4°C° 0 mm 1 mps 746 mmHg 89%
    22:00 -6°C° 0 mm 1 mps 746 mmHg 88%
    23:00 -6°C° 0 mm 1 mps 745 mmHg 88%

    19 December, Wednesday

    Time Temperature Precipitation Wind Pressure Humidity
    00:00 -6°C° 0 mm 1 mps 745 mmHg 88%
    01:00 -6°C° 0 mm 1 mps 745 mmHg 88%
    02:00 -7°C° 0 mm 1 mps 745 mmHg 88%
    03:00 -7°C° 0 mm 1 mps 745 mmHg 88%
    04:00 -7°C° 0 mm 1 mps 745 mmHg 88%
    05:00 -7°C° 0 mm 1 mps 745 mmHg 88%
    06:00 -7°C° 0 mm 1 mps 745 mmHg 88%
    07:00 -7°C° 0 mm 1 mps 745 mmHg 89%
    08:00 -4°C° 0 mm 1 mps 745 mmHg 88%
    09:00 -3°C° 0 mm 1 mps 745 mmHg 88%
    10:00 -2°C° 0 mm 0 mps 745 mmHg 88%
    11:00 -2°C° 0 mm 0 mps 745 mmHg 88%
    12:00 -1°C° 0 mm 0 mps 745 mmHg 89%
    13:00 0°C° 0 mm 0 mps 745 mmHg 90%
    14:00 -1°C° 0 mm 0 mps 745 mmHg 91%
    15:00 -3°C° 0 mm 0 mps 745 mmHg 92%
    16:00 -4°C° 0 mm 0 mps 744 mmHg 93%
    17:00 -3°C° 0 mm 1 mps 745 mmHg 92%
    18:00 -4°C° 0 mm 1 mps 745 mmHg 91%
    19:00 -4°C° 0 mm 1 mps 745 mmHg 91%
    20:00 -4°C° 0 mm 1 mps 745 mmHg 90%
    21:00 -6°C° 0 mm 1 mps 745 mmHg 89%
    22:00 -6°C° 0 mm 1 mps 745 mmHg 88%
    23:00 -6°C° 0 mm 1 mps 745 mmHg 87%

    20 December, Thursday

    Time Temperature Precipitation Wind Pressure Humidity
    00:00 -7°C° 0 mm 2 mps 745 mmHg 86%
    01:00 -7°C° 0 mm 2 mps 744 mmHg 84%
    02:00 -7°C° 0 mm 2 mps 744 mmHg 83%
    03:00 -7°C° 0 mm 2 mps 744 mmHg 82%
    04:00 -7°C° 0 mm 2 mps 744 mmHg 82%
    05:00 -7°C° 0 mm 2 mps 744 mmHg 81%
    06:00 -7°C° 0 mm 2 mps 744 mmHg 80%
    07:00 -7°C° 0 mm 2 mps 744 mmHg 79%
    08:00 -5°C° 0 mm 2 mps 744 mmHg 80%
    09:00 -3°C° 0 mm 2 mps 744 mmHg 81%
    10:00 -2°C° 0 mm 2 mps 744 mmHg 83%
    11:00 -1°C° 0 mm 2 mps 743 mmHg 86%
    12:00 +1°C° 0 mm 2 mps 743 mmHg 89%
    13:00 +2°C° 0 mm 2 mps 742 mmHg 92%
    14:00 +1°C° 0 mm 2 mps 742 mmHg 90%
    15:00 -1°C° 0 mm 2 mps 742 mmHg 88%
    16:00 -1°C° 0 mm 2 mps 742 mmHg 86%
    17:00 -1°C° 0 mm 2 mps 742 mmHg 86%
    18:00 -2°C° 0 mm 2 mps 742 mmHg 86%
    19:00 -2°C° 0 mm 2 mps 742 mmHg 86%
    20:00 -2°C° 0 mm 2 mps 743 mmHg 86%
    21:00 -2°C° 0 mm 2 mps 743 mmHg 86%
    22:00 0°C° 0 mm 1 mps 743 mmHg 86%
    23:00 -2°C° 0.1 mm 2 mps 743 mmHg 87%
    Show more